Hourly Data Report for October 29, 2013

All times are specified in Local Standard Time (LST). Add 1 hour to adjust for Daylight Saving Time where and when it is observed.

RANKIN INLET A
NUNAVUT

62°48'38.000" N
92°06'53.000" W
32.30 m
2303405
71083
YRT

Download Data

Hourly Data (October 2013)
Hourly Data Report for October 29, 2013
Temp Definition
°C
Dew Point Temp Definition
°C
Rel Hum Definition
%
Wind Dir Definition
10's deg

Wind Spd Definition
km/h
Visibility Definition
km
Stn Press Definition
kPa
Hmdx Definition


Wind Chill Definition


Weather Definition


TIME
00:00 Legend Double Dagger -18.4 -21.2 79 31 17 24.1 101.02   -28 Mainly Clear
01:00 Legend Double Dagger -18.6 -21.2 80 33 27 24.1 100.99   -30 LegendNANA
02:00 Legend Double Dagger -18.0 -20.5 81 32 26 24.1 100.98   -29 LegendNANA
03:00 Legend Double Dagger -19.0 -21.5 81 32 19 24.1 100.97   -29 Mainly Clear
04:00 Legend Double Dagger -18.3 -20.7 82 32 24 24.1 100.96   -29 LegendNANA
05:00 Legend Double Dagger -18.7 -21.3 80 33 18 24.1 100.94   -28 LegendNANA
06:00 Legend Double Dagger -18.0 -20.7 80 33 23 24.1 100.94   -29 Mainly Clear
07:00 Legend Double Dagger -19.0 -21.6 80 34 19 24.1 100.91   -29 LegendNANA
08:00 Legend Double Dagger -18.3 -20.7 82 34 23 24.1 100.88   -29 LegendNANA
09:00 Legend Double Dagger -18.7 -21.3 80 34 20 24.1 100.87   -29 Mainly Clear
10:00 Legend Double Dagger -18.8 -21.4 80 32 21 24.1 100.86   -29 LegendNANA
11:00 Legend Double Dagger -17.4 -20.2 79 34 22 24.1 100.84   -28 LegendNANA
12:00 Legend Double Dagger -16.9 -19.9 78 34 24 24.1 100.83   -27 Mainly Clear
13:00 Legend Double Dagger -16.5 -20.0 75 35 20 24.1 100.82   -26 LegendNANA
14:00 Legend Double Dagger -16.3 -19.8 75 34 13 24.1 100.84   -24 LegendNANA
15:00 Legend Double Dagger -16.6 -19.9 76 35 17 24.1 100.82   -25 Mainly Clear
16:00 Legend Double Dagger -18.3 -21.1 79 34 9 24.1 100.84   -25 LegendNANA
17:00 Legend Double Dagger -19.3 -21.8 81 32 16 24.1 100.88   -29 LegendNANA
18:00 Legend Double Dagger -20.2 -22.5 82 32 20 24.1 100.89   -31 Mainly Clear
19:00 Legend Double Dagger -20.1 -22.4 82 1 14 24.1 100.79   -29 LegendNANA
20:00 Legend Double Dagger -20.1 -22.3 83 35 11 24.1 100.77   -28 LegendNANA
21:00 Legend Double Dagger -21.1 -23.4 82 36 11 24.1 100.75   -29 Mainly Clear
22:00 Legend Double Dagger -20.8 -23.1 82 32 11 24.1 100.79   -29 LegendNANA
23:00 Legend Double Dagger -20.4 -22.7 82 35 7 24.1 100.69   -26 LegendNANA

Notes on Data Quality.

Legend

  • E = Estimated
  • M = Missing
  • NA = Not Available
  • ‡ = Partner data that is not subject to review by the National Climate Archives
Date modified: